sat.trackr.live / text

‹ back to catalog

STARLINK-3906

NORAD 52585 · 2022-051BB

PAYLOAD ACTIVE UNKNOWN

§ Identity

Operator
Country
US
Launch date
2022-05-13
Launch site
AFWTR
Launch vehicle
Mass (kg)
RCS (m²)

Purposes: comms

External: N2YO · Heavens-Above · Gunter

§ Orbital elements

Epoch: 2026-09-20T04:57:28.055808Z

Period
95.44 min
Inclination
53.1654°
Eccentricity
0.0000539
Mean motion
15.08830934 rev/d
Perigee alt
539.4 km
Apogee alt
540.1 km
Semi-major
6,917.9 km
B*
-2.6738e-5
RAAN
325.2029°
Arg perigee
71.8228°
Mean anomaly
288.2823°
Rev number
24,095

§ Raw data

STARLINK-39061 52585U 22051BB  26263.20657472 -.00000713  00000+0 -26738-4 0  99992 52585  53.1654 325.2029 0000539  71.8228 288.2823 15.08830934240953

JSON: /api/v1/satellites/52585 · /tle

For live sub-satellite position, see the globe view (requires WebGL).

§ Visibility from observer

Set your observer location to see the next 7 days of passes ≥ 10°. The values pass through the URL so the page stays shareable.

No JS? Fill the form by hand. The geolocation button needs JavaScript.